Regional Weather Roundup
Issued by NWS

Home | Current Version | Previous Version | Graphics & Text | Print | Product List | Glossary On
Versions: 1 2 3 4 5 6 7 8 9 10 11 12 13 14 15 16 17 18 19 20 21 22 23 24 25 26 27 28 29 30 31 32 33 34 35 36 37 38 39 40 41 42 43 44 45 46 47 48 49 50
000
ASUS43 KFSD 300402
RWRSD

WEATHER ROUNDUP FOR SOUTH DAKOTA
NATIONAL WEATHER SERVICE SIOUX FALLS SD
1100 PM CDT MON JUN 29 2015

NOTE: "FAIR" INDICATES FEW OR NO CLOUDS BELOW 12,000 FEET WITH NO
SIGNIFICANT WEATHER AND/OR OBSTRUCTIONS TO VISIBILITY.


SDZ001>005-009-010-012>017-300500-
NORTHWEST AND NORTH CENTRAL SOUTH DAKOTA

CITY           SKY/WX    TMP DP  RH WIND       PRES   REMARKS
BUFFALO          N/A     76  61  59 W7        29.93R
FAITH            N/A     74  63  68 S12       29.95S
MOBRIDGE       MOCLDY    79  63  57 E7        29.89R
$$

SDZ012>016-024>037-041>051-057-063-072>074-300500-
SOUTHWEST AND SOUTH CENTRAL SOUTH DAKOTA

CITY           SKY/WX    TMP DP  RH WIND       PRES   REMARKS
RAPID CTY ARPT CLEAR     70  61  73 CALM      30.03R
PIERRE         PTCLDY    72  62  71 E6        29.91R
CUSTER         PTCLDY    63  56  78 NW3       30.22R
ELLSWORTH AFB  CLEAR     73  61  65 W7        30.02S
PHILIP         CLEAR     77  64  64 CALM      29.96R
PINE RIDGE     CLEAR     66  60  81 CALM      30.06R
WINNER         FAIR      78  55  44 SW6       29.96R
$$

SDZ004>011-016>023-039-040-300500-
NORTHEAST SOUTH DAKOTA

CITY           SKY/WX    TMP DP  RH WIND       PRES   REMARKS
ABERDEEN       PTCLDY    70  62  76 E5        29.92R
WATERTOWN      CLOUDY    64  60  87 NE6       29.93R
BROOKINGS      PTCLDY    70  61  73 N6        29.94R
SISSETON         N/A     64  61  90 N6        29.91R
$$

SDZ017-020-022-023-036>040-048>070-300500-
SOUTHEAST SOUTH DAKOTA

CITY           SKY/WX    TMP DP  RH WIND       PRES   REMARKS
SIOUX FALLS    PTCLDY    72  62  71 W5        29.91R
HURON          PTCLDY    73  67  81 NE5       29.91R
CHAMBERLAIN    CLEAR     69  63  81 CALM      29.94R
MITCHELL       PTCLDY    75  66  73 SW5       29.91R
YANKTON        PTCLDY    73  63  68 SW5       29.91S
$$

ABBREVIATIONS USED IN REMARKS
   TC - TEMPERATURE IN CELSIUS
  WCI - WIND CHILL INDEX
   HX - HEAT INDEX
  VSB - VISIBILITY



USA.gov is the U.S. government's official web portal to all federal, state and local government web resources and services.